Regional Weather Roundup
Issued by NWS Albany, NY

Home | Current Version | Previous Version | Text Only | Print | Product List | Glossary On
Versions: 1 2 3 4 5 6 7 8 9 10 11 12 13 14 15 16 17 18 19 20 21 22 23 24 25 26 27 28 29 30 31 32 33 34 35 36 37 38 39 40 41 42 43 44 45 46 47 48 49 50
000
ASUS41 KALY 241510
RWRALY

NEW YORK STATE HOURLY WEATHER ROUNDUP
NATIONAL WEATHER SERVICE ALBANY NY
1100 AM EDT WED AUG 24 2016

NOTE: "FAIR" INDICATES FEW OR NO CLOUDS BELOW 12,000 FEET WITH NO
SIGNIFICANT WEATHER AND/OR NO OBSTRUCTIONS TO VISIBILITY.

NYZ032-033-038>043-046>054-057>066-NYZ062>081-082-084-241600-
EAST


CITY           SKY/WX    TMP DP  RH WIND       PRES   REMARKS
ALBANY         MOSUNNY   73  60  63 S7        30.26F
GLENS FALLS    SUNNY     74  61  63 VRB5      30.25F
POUGHKEEPSIE   SUNNY     78  61  55 CALM      30.27F
NEWBURGH       SUNNY     75  64  69 W6        30.30F
MONTGOMERY     SUNNY     78  66  66 SW6       30.27F
WHITE PLAINS   SUNNY     79  60  52 NW7       30.27F
ISLIP          MOSUNNY   82  57  42 W8        30.27F
NEW YORK CITY  MOSUNNY   82  60  47 NW5       30.26F
CENTRAL PARK     N/A     80  60  50 CALM      30.29F
$$

NYZ005>009-017-018-044>046-055-056-241600-
CENTRAL


CITY           SKY/WX    TMP DP  RH WIND       PRES   REMARKS
FULTON         SUNNY     77  63  61 VRB6      30.22F
SYRACUSE       MOSUNNY   78  62  57 NE3       30.22F
ROME           SUNNY     75  63  66 SE3       30.25F
ELMIRA         SUNNY     72  61  68 CALM      30.25F
BINGHAMTON     SUNNY     72  60  66 SW6       30.29F
MONTICELLO     SUNNY     73  63  68 CALM      30.32F
$$

NYZ026>034-041>043-087-241600-
NORTH


CITY           SKY/WX    TMP DP  RH WIND       PRES   REMARKS
WATERTOWN      SUNNY     79  58  48 SW13      30.21F
FORT DRUM      NOT AVBL
MASSENA        SUNNY     77  61  57 SW14      30.19F
SARANAC LAKE   SUNNY     74  55  51 SW12      30.26F
PLATTSBURGH    SUNNY     73  64  73 SE13      30.19F
$$

NYZ001>004-010>016-019>021-085-241600-
WEST


CITY           SKY/WX    TMP DP  RH WIND       PRES   REMARKS
NIAGARA FALLS  PTSUNNY   80  60  50 SW9       30.18F
BUFFALO        PTSUNNY   80  58  46 SW10      30.19F
DUNKIRK        SUNNY     78  62  57 S9        30.19F
JAMESTOWN      SUNNY     72  61  68 S9        30.24F
WELLSVILLE     SUNNY     76  60  57 S9        30.30F
ROCHESTER      MOSUNNY   79  62  56 SW9       30.21F
PENN YAN       SUNNY     77  59  53 S8        30.25F
$$

             KEY
       WCI = WIND CHILL INDEX
       VSB = VISIBILITY
       HX  = HEAT INDEX
$$



USA.gov is the U.S. government's official web portal to all federal, state and local government web resources and services.